TimeCDT,TemperatureF,Dew PointF,Humidity,Sea Level PressureIn,VisibilityMPH,Wind Direction,Wind SpeedMPH,Gust SpeedMPH,PrecipitationIn,Events,Conditions,WindDirDegrees,DateUTC
12:53 AM,75.0,15.1,10,29.77,10.0,SE,9.2,16.1,N/A,,Clear,140,2013-05-09 05:53:00
1:53 AM,72.0,16.0,12,29.76,10.0,South,6.9,-,N/A,,Clear,180,2013-05-09 06:53:00
2:53 AM,69.1,18.0,14,29.76,7.0,SSW,4.6,-,N/A,,Clear,200,2013-05-09 07:53:00
3:53 AM,64.0,19.9,18,29.76,4.0,Calm,Calm,-,N/A,,Haze,0,2013-05-09 08:53:00
4:53 AM,61.0,21.9,22,29.78,7.0,Calm,Calm,-,N/A,,Clear,0,2013-05-09 09:53:00
5:53 AM,62.1,27.0,26,29.77,10.0,Calm,Calm,-,N/A,,Clear,0,2013-05-09 10:53:00
6:53 AM,64.9,26.1,23,29.79,10.0,ENE,3.5,-,N/A,,Clear,70,2013-05-09 11:53:00
7:53 AM,64.9,41.0,42,29.80,10.0,Calm,Calm,-,N/A,,Partly Cloudy,0,2013-05-09 12:53:00
8:53 AM,70.0,43.0,38,29.83,10.0,Variable,4.6,-,N/A,,Mostly Cloudy,0,2013-05-09 13:53:00
9:53 AM,75.0,37.9,26,29.83,10.0,ESE,8.1,-,N/A,,Scattered Clouds,120,2013-05-09 14:53:00
10:53 AM,77.0,21.0,12,29.83,10.0,WSW,13.8,-,N/A,,Clear,250,2013-05-09 15:53:00
11:53 AM,82.4,19.4,10,29.95,10.0,WSW,10.4,17.3,N/A,,Clear,250,2013-05-09 16:53:00
12:53 PM,84.9,19.9,9,29.79,10.0,WSW,12.7,-,N/A,,Clear,250,2013-05-09 17:53:00
1:53 PM,86.0,21.0,9,29.78,10.0,West,8.1,28.8,N/A,,Clear,260,2013-05-09 18:53:00
2:53 PM,86.0,21.9,10,29.77,10.0,NW,6.9,19.6,N/A,,Clear,320,2013-05-09 19:53:00
3:53 PM,86.0,21.9,10,29.75,10.0,SW,11.5,23.0,N/A,,Clear,230,2013-05-09 20:53:00
4:53 PM,87.1,21.0,9,29.73,10.0,West,11.5,18.4,N/A,,Clear,270,2013-05-09 21:53:00
5:53 PM,88.0,23.0,9,29.72,10.0,West,11.5,-,N/A,,Clear,270,2013-05-09 22:53:00
6:53 PM,87.1,23.0,10,29.71,10.0,WSW,8.1,17.3,N/A,,Clear,250,2013-05-09 23:53:00
7:53 PM,84.9,23.0,10,29.72,10.0,West,11.5,-,N/A,,Clear,260,2013-05-10 00:53:00
8:53 PM,79.0,23.0,13,29.73,10.0,West,6.9,-,N/A,,Clear,280,2013-05-10 01:53:00
9:53 PM,73.0,23.0,15,29.76,10.0,WNW,5.8,-,N/A,,Clear,300,2013-05-10 02:53:00
10:53 PM,68.0,23.0,18,29.78,10.0,NW,8.1,-,N/A,,Clear,310,2013-05-10 03:53:00
11:53 PM,69.1,23.0,18,29.78,10.0,NW,8.1,-,N/A,,Clear,320,2013-05-10 04:53:00